Tracking 21676 objects as of 29-Oct-2020
HD Live streaming from Space Station
objects crossing your sky now

COSMOS 647

Track COSMOS 647 now!
10-day predictions
COSMOS 647 is classified as:


NORAD ID: 7271
Int'l Code: 1974-024G
Perigee: 1,429.4 km
Apogee: 1,490.2 km
Inclination: 74.0 °
Period: 114.9 minutes
Semi major axis: 7830 km
RCS: 0.7018 m2 (medium)
Launch date: April 23, 1974
Source: Commonwealth of Independent States (former USSR) (CIS)
Launch site: PLESETSK MISSILE AND SPACE COMPLEX (PKMTR)
aabbcc
Your satellite tracking list
Your tracking list is empty




NASA's NSSDC Master Catalog

Two Line Element Set (TLE):
1  7271U 74024G   20302.54198101 -.00000033 +00000-0 -10637-3 0  9998
2  7271 074.0210 044.2543 0038806 038.5240 332.4443 12.52834366127353
Source of the keplerian elements: AFSPC